User: anonymous   Login
Location: Unspecified
(0.0000°N, 0.0000°E)
Time: 12:00:12
(UTC+00:00)
Language:

IGS 8A - Orbit

View from above orbital plane
View from above orbital plane
View from above satellite
View from above satellite

Ground track
Ground track

The orbit data is extracted from the following two-line orbital elements,

1 39061U 13002A   17242.01174373 0.00000000  00000-0  00000-0 0    00
2 39061  97.5279   1.6520 0009000 258.2496 101.7502 15.17612970    04
Epoch (UTC): 30 August 2017 00:16:54
Eccentricity: 0.0009000
inclination: 97.5279°
perigee height: 507 km
apogee height: 519 km
right ascension of ascending node: 1.6520°
argument of perigee: 258.2496°
revolutions per day: 15.17612970
mean anomaly at epoch: 101.7502°
orbit number at epoch: 0

The dashed part of the orbit path shows where the satellite is in the earth's shadow,  

DLR